TimePDT,TemperatureF,Dew PointF,Humidity,Sea Level PressureIn,VisibilityMPH,Wind Direction,Wind SpeedMPH,Gust SpeedMPH,PrecipitationIn,Events,Conditions,WindDirDegrees,DateUTC
12:53 AM,63.0,36.0,37,29.90,10.0,Variable,4.6,-,N/A,,Clear,0,2013-07-15 07:53:00
1:53 AM,61.0,37.0,41,29.89,10.0,SSE,6.9,-,N/A,,Clear,160,2013-07-15 08:53:00
2:53 AM,57.9,37.9,47,29.89,10.0,SSE,10.4,-,N/A,,Clear,160,2013-07-15 09:53:00
3:53 AM,57.9,36.0,44,29.89,10.0,SSE,3.5,-,N/A,,Clear,150,2013-07-15 10:53:00
4:53 AM,55.0,36.0,49,29.90,10.0,SSE,6.9,-,N/A,,Clear,160,2013-07-15 11:53:00
5:53 AM,55.9,37.0,49,29.92,10.0,South,4.6,-,N/A,,Clear,170,2013-07-15 12:53:00
6:53 AM,60.1,36.0,41,29.93,10.0,West,3.5,-,N/A,,Clear,260,2013-07-15 13:53:00
7:53 AM,66.0,36.0,33,29.93,10.0,NW,4.6,-,N/A,,Clear,320,2013-07-15 14:53:00
8:53 AM,69.1,37.9,32,29.94,10.0,North,10.4,-,N/A,,Clear,10,2013-07-15 15:53:00
9:53 AM,72.0,37.9,29,29.95,10.0,NNE,4.6,17.3,N/A,,Clear,30,2013-07-15 16:53:00
10:53 AM,75.9,35.1,23,29.95,10.0,Variable,3.5,-,N/A,,Clear,0,2013-07-15 17:53:00
11:53 AM,78.1,34.0,20,29.95,10.0,Variable,3.5,-,N/A,,Clear,0,2013-07-15 18:53:00
12:53 PM,78.1,30.0,17,29.95,10.0,WSW,9.2,-,N/A,,Clear,250,2013-07-15 19:53:00
1:53 PM,80.1,30.0,16,29.94,10.0,WNW,8.1,-,N/A,,Clear,300,2013-07-15 20:53:00
2:53 PM,80.1,28.9,15,29.94,10.0,Calm,Calm,-,N/A,,Clear,0,2013-07-15 21:53:00
3:53 PM,82.0,24.1,12,29.93,10.0,NNE,3.5,-,N/A,,Clear,20,2013-07-15 22:53:00
4:53 PM,81.0,30.9,16,29.92,10.0,East,6.9,-,N/A,,Clear,80,2013-07-15 23:53:00
5:53 PM,82.0,33.1,17,29.91,10.0,North,12.7,-,N/A,,Clear,10,2013-07-16 00:53:00
6:53 PM,81.0,30.9,16,29.90,10.0,NNW,9.2,-,N/A,,Clear,340,2013-07-16 01:53:00
7:53 PM,78.1,28.9,17,29.90,10.0,North,9.2,-,N/A,,Clear,360,2013-07-16 02:53:00
8:53 PM,72.0,28.9,20,29.91,10.0,North,5.8,-,N/A,,Clear,360,2013-07-16 03:53:00
9:53 PM,68.0,33.1,27,29.93,10.0,North,6.9,-,N/A,,Clear,350,2013-07-16 04:53:00
10:53 PM,66.0,37.0,34,29.94,10.0,North,4.6,-,N/A,,Clear,350,2013-07-16 05:53:00
11:53 PM,64.0,39.0,40,29.94,10.0,North,4.6,-,N/A,,Clear,350,2013-07-16 06:53:00